Year,Month,Day,Hour,Minute,Value (Times are PST for temperature in C)
2016,04,21,00,00,16.80
2016,04,21,00,01,16.80
2016,04,21,00,02,16.80
2016,04,21,00,03,16.80
2016,04,21,00,04,16.80
2016,04,21,00,05,16.80
2016,04,21,00,06,16.80
2016,04,21,00,07,16.80
2016,04,21,00,08,16.80
2016,04,21,00,09,16.80
2016,04,21,00,10,16.80
2016,04,21,00,11,16.80
2016,04,21,00,12,16.80
2016,04,21,00,13,16.90
2016,04,21,00,14,16.90
2016,04,21,00,15,16.90
2016,04,21,00,16,16.90
2016,04,21,00,17,16.90
2016,04,21,00,18,16.90
2016,04,21,00,19,16.90
2016,04,21,00,20,16.90
2016,04,21,00,21,16.90
2016,04,21,00,22,16.90
2016,04,21,00,23,16.90
2016,04,21,00,24,16.90
2016,04,21,00,25,16.90
2016,04,21,00,26,16.90
2016,04,21,00,27,16.90
2016,04,21,00,28,16.80
2016,04,21,00,29,16.80
2016,04,21,00,30,16.80
2016,04,21,00,31,16.70
2016,04,21,00,32,16.70
2016,04,21,00,33,16.70
2016,04,21,00,34,16.60
2016,04,21,00,35,16.50
2016,04,21,00,36,16.50
2016,04,21,00,37,16.50
2016,04,21,00,38,16.40
2016,04,21,00,39,16.40
2016,04,21,00,40,16.50
2016,04,21,00,41,16.60
2016,04,21,00,42,16.60
2016,04,21,00,43,16.60
2016,04,21,00,44,16.60
2016,04,21,00,45,16.60
2016,04,21,00,46,16.60
2016,04,21,00,47,16.60
2016,04,21,00,48,16.50
2016,04,21,00,49,16.50
2016,04,21,00,50,16.40
2016,04,21,00,51,16.40
2016,04,21,00,52,16.30
2016,04,21,00,53,16.30
2016,04,21,00,54,16.30
2016,04,21,00,55,16.20
2016,04,21,00,56,16.10
2016,04,21,00,57,16.10
2016,04,21,00,58,16.10
2016,04,21,00,59,16.10
2016,04,21,01,00,16.10
2016,04,21,01,01,16.10
2016,04,21,01,02,16.10
2016,04,21,01,03,16.10
2016,04,21,01,04,16.10
2016,04,21,01,05,16.10
2016,04,21,01,06,16.10
2016,04,21,01,07,16.10
2016,04,21,01,08,16.10
2016,04,21,01,09,16.10
2016,04,21,01,10,16.10
2016,04,21,01,11,16.10
2016,04,21,01,12,16.10
2016,04,21,01,13,16.10
2016,04,21,01,14,16.10
2016,04,21,01,15,16.10
2016,04,21,01,16,16.10
2016,04,21,01,17,16.10
2016,04,21,01,18,16.10
2016,04,21,01,19,16.10
2016,04,21,01,20,16.10
2016,04,21,01,21,16.10
2016,04,21,01,22,16.10
2016,04,21,01,23,16.10
2016,04,21,01,24,16.10
2016,04,21,01,25,16.00
2016,04,21,01,26,16.00
2016,04,21,01,27,16.00
2016,04,21,01,28,16.00
2016,04,21,01,29,15.90
2016,04,21,01,30,15.90
2016,04,21,01,31,15.90
2016,04,21,01,32,15.90
2016,04,21,01,33,15.90
2016,04,21,01,34,15.90
2016,04,21,01,35,15.90
2016,04,21,01,36,15.80
2016,04,21,01,37,15.80
2016,04,21,01,38,15.80
2016,04,21,01,39,15.80
2016,04,21,01,40,15.80
2016,04,21,01,41,15.80
2016,04,21,01,42,15.70
2016,04,21,01,43,15.70
2016,04,21,01,44,15.70
2016,04,21,01,45,15.70
2016,04,21,01,46,15.70
2016,04,21,01,47,15.60
2016,04,21,01,48,15.60
2016,04,21,01,49,15.60
2016,04,21,01,50,15.50
2016,04,21,01,51,15.50
2016,04,21,01,52,15.50
2016,04,21,01,53,15.50
2016,04,21,01,54,15.40
2016,04,21,01,55,15.40
2016,04,21,01,56,15.40
2016,04,21,01,57,15.40
2016,04,21,01,58,15.40
2016,04,21,01,59,15.40
2016,04,21,02,00,15.30
2016,04,21,02,01,15.30
2016,04,21,02,02,15.30
2016,04,21,02,03,15.30
2016,04,21,02,04,15.30
2016,04,21,02,05,15.30
2016,04,21,02,06,15.20
2016,04,21,02,07,15.20
2016,04,21,02,08,15.20
2016,04,21,02,09,15.20
2016,04,21,02,10,15.20
2016,04,21,02,11,15.20
2016,04,21,02,12,15.10
2016,04,21,02,13,15.10
2016,04,21,02,14,15.10
2016,04,21,02,15,15.10
2016,04,21,02,16,15.10
2016,04,21,02,17,15.10
2016,04,21,02,18,15.10
2016,04,21,02,19,15.10
2016,04,21,02,20,15.10
2016,04,21,02,21,15.10
2016,04,21,02,22,15.10
2016,04,21,02,23,15.20
2016,04,21,02,24,15.20
2016,04,21,02,25,15.20
2016,04,21,02,26,15.20
2016,04,21,02,27,15.30
2016,04,21,02,28,15.30
2016,04,21,02,29,15.40
2016,04,21,02,30,15.40
2016,04,21,02,31,15.40
2016,04,21,02,32,15.40
2016,04,21,02,33,15.40
2016,04,21,02,34,15.50
2016,04,21,02,35,15.50
2016,04,21,02,36,15.50
2016,04,21,02,37,15.50
2016,04,21,02,38,15.50
2016,04,21,02,39,15.50
2016,04,21,02,40,15.50
2016,04,21,02,41,15.40
2016,04,21,02,42,15.40
2016,04,21,02,43,15.40
2016,04,21,02,44,15.40
2016,04,21,02,45,15.40
2016,04,21,02,46,15.40
2016,04,21,02,47,15.40
2016,04,21,02,48,15.40
2016,04,21,02,49,15.40
2016,04,21,02,50,15.30
2016,04,21,02,51,15.20
2016,04,21,02,52,15.20
2016,04,21,02,53,15.10
2016,04,21,02,54,15.10
2016,04,21,02,55,15.10
2016,04,21,02,56,15.10
2016,04,21,02,57,15.10
2016,04,21,02,58,15.10
2016,04,21,02,59,15.10
2016,04,21,03,00,15.10
2016,04,21,03,01,15.10
2016,04,21,03,02,15.10
2016,04,21,03,03,15.10
2016,04,21,03,04,15.10
2016,04,21,03,05,15.10
2016,04,21,03,06,15.10
2016,04,21,03,07,15.10
2016,04,21,03,08,15.10
2016,04,21,03,09,15.20
2016,04,21,03,10,15.20
2016,04,21,03,11,15.20
2016,04,21,03,12,15.20
2016,04,21,03,13,15.20
2016,04,21,03,14,15.20
2016,04,21,03,15,15.20
2016,04,21,03,16,15.20
2016,04,21,03,17,15.20
2016,04,21,03,18,15.20
2016,04,21,03,19,15.20
2016,04,21,03,20,15.20
2016,04,21,03,21,15.20
2016,04,21,03,22,15.20
2016,04,21,03,23,15.20
2016,04,21,03,24,15.20
2016,04,21,03,25,15.20
2016,04,21,03,26,15.20
2016,04,21,03,27,15.20
2016,04,21,03,28,15.20
2016,04,21,03,29,15.30
2016,04,21,03,30,15.30
2016,04,21,03,31,15.30
2016,04,21,03,32,15.20
2016,04,21,03,33,15.20
2016,04,21,03,34,15.20
2016,04,21,03,35,15.20
2016,04,21,03,36,15.20
2016,04,21,03,37,15.20
2016,04,21,03,38,15.20
2016,04,21,03,39,15.20
2016,04,21,03,40,15.20
2016,04,21,03,41,15.20
2016,04,21,03,42,15.20
2016,04,21,03,43,15.20
2016,04,21,03,44,15.20
2016,04,21,03,45,15.20
2016,04,21,03,46,15.20
2016,04,21,03,47,15.20
2016,04,21,03,48,15.20
2016,04,21,03,49,15.20
2016,04,21,03,50,15.20
2016,04,21,03,51,15.20
2016,04,21,03,52,15.20
2016,04,21,03,53,15.20
2016,04,21,03,54,15.20
2016,04,21,03,55,15.20
2016,04,21,03,56,15.20
2016,04,21,03,57,15.20
2016,04,21,03,58,15.10
2016,04,21,03,59,15.10
2016,04,21,04,00,15.10
2016,04,21,04,01,15.10
2016,04,21,04,02,15.00
2016,04,21,04,03,15.00
2016,04,21,04,04,15.00
2016,04,21,04,05,15.00
2016,04,21,04,06,15.00
2016,04,21,04,07,15.00
2016,04,21,04,08,14.90
2016,04,21,04,09,14.90
2016,04,21,04,10,14.90
2016,04,21,04,11,14.90
2016,04,21,04,12,14.90
2016,04,21,04,13,14.90
2016,04,21,04,14,14.80
2016,04,21,04,15,14.80
2016,04,21,04,16,14.80
2016,04,21,04,17,14.80
2016,04,21,04,18,14.80
2016,04,21,04,19,14.80
2016,04,21,04,20,14.80
2016,04,21,04,21,14.80
2016,04,21,04,22,14.80
2016,04,21,04,23,14.80
2016,04,21,04,24,14.80
2016,04,21,04,25,14.80
2016,04,21,04,26,14.80
2016,04,21,04,27,14.80
2016,04,21,04,28,14.80
2016,04,21,04,29,14.80
2016,04,21,04,30,14.80
2016,04,21,04,31,14.80
2016,04,21,04,32,14.80
2016,04,21,04,33,14.70
2016,04,21,04,34,14.70
2016,04,21,04,35,14.70
2016,04,21,04,36,14.70
2016,04,21,04,37,14.70
2016,04,21,04,38,14.70
2016,04,21,04,39,14.70
2016,04,21,04,40,14.60
2016,04,21,04,41,14.60
2016,04,21,04,42,14.60
2016,04,21,04,43,14.60
2016,04,21,04,44,14.60
2016,04,21,04,45,14.60
2016,04,21,04,46,14.60
2016,04,21,04,47,14.60
2016,04,21,04,48,14.60
2016,04,21,04,49,14.60
2016,04,21,04,50,14.60
2016,04,21,04,51,14.60
2016,04,21,04,52,14.60
2016,04,21,04,53,14.60
2016,04,21,04,54,14.50
2016,04,21,04,55,14.50
2016,04,21,04,56,14.50
2016,04,21,04,57,14.40
2016,04,21,04,58,14.40
2016,04,21,04,59,14.40
2016,04,21,05,00,14.40
2016,04,21,05,01,14.40
2016,04,21,05,02,14.40
2016,04,21,05,03,14.40
2016,04,21,05,04,14.40
2016,04,21,05,05,14.40
2016,04,21,05,06,14.40
2016,04,21,05,07,14.30
2016,04,21,05,08,14.30
2016,04,21,05,09,14.30
2016,04,21,05,10,14.30
2016,04,21,05,11,14.30
2016,04,21,05,12,14.30
2016,04,21,05,13,14.30
2016,04,21,05,14,14.30
2016,04,21,05,15,14.30
2016,04,21,05,16,14.30
2016,04,21,05,17,14.30
2016,04,21,05,18,14.30
2016,04,21,05,19,14.30
2016,04,21,05,20,14.30
2016,04,21,05,21,14.30
2016,04,21,05,22,14.30
2016,04,21,05,23,14.30
2016,04,21,05,24,14.30
2016,04,21,05,25,14.30
2016,04,21,05,26,14.30
2016,04,21,05,27,14.30
2016,04,21,05,28,14.30
2016,04,21,05,29,14.30
2016,04,21,05,30,14.20
2016,04,21,05,31,14.20
2016,04,21,05,32,14.20
2016,04,21,05,33,14.20
2016,04,21,05,34,14.30
2016,04,21,05,35,14.30
2016,04,21,05,36,14.30
2016,04,21,05,37,14.30
2016,04,21,05,38,14.30
2016,04,21,05,39,14.30
2016,04,21,05,40,14.30
2016,04,21,05,41,14.30
2016,04,21,05,42,14.30
2016,04,21,05,43,14.30
2016,04,21,05,44,14.30
2016,04,21,05,45,14.30
2016,04,21,05,46,14.30
2016,04,21,05,47,14.30
2016,04,21,05,48,14.30
2016,04,21,05,49,14.30
2016,04,21,05,50,14.30
2016,04,21,05,51,14.30
2016,04,21,05,52,14.30
2016,04,21,05,53,14.30
2016,04,21,05,54,14.30
2016,04,21,05,55,14.30
2016,04,21,05,56,14.20
2016,04,21,05,57,14.20
2016,04,21,05,58,14.20
2016,04,21,05,59,14.20
2016,04,21,06,00,14.20
2016,04,21,06,01,14.20
2016,04,21,06,02,14.20
2016,04,21,06,03,14.20
2016,04,21,06,04,14.20
2016,04,21,06,05,14.20
2016,04,21,06,06,14.20
2016,04,21,06,07,14.20
2016,04,21,06,08,14.20
2016,04,21,06,09,14.10
2016,04,21,06,10,14.10
2016,04,21,06,11,14.10
2016,04,21,06,12,14.10
2016,04,21,06,13,14.00
2016,04,21,06,14,14.00
2016,04,21,06,15,14.00
2016,04,21,06,16,14.00
2016,04,21,06,17,14.00
2016,04,21,06,18,14.00
2016,04,21,06,19,14.00
2016,04,21,06,20,14.00
2016,04,21,06,21,14.00
2016,04,21,06,22,13.90
2016,04,21,06,23,13.90
2016,04,21,06,24,13.90
2016,04,21,06,25,13.90
2016,04,21,06,26,13.90
2016,04,21,06,27,13.90
2016,04,21,06,28,13.90
2016,04,21,06,29,13.90
2016,04,21,06,30,13.90
2016,04,21,06,31,13.90
2016,04,21,06,32,13.90
2016,04,21,06,33,13.90
2016,04,21,06,34,13.90
2016,04,21,06,35,13.90
2016,04,21,06,36,13.90
2016,04,21,06,37,13.90
2016,04,21,06,38,13.80
2016,04,21,06,39,13.80
2016,04,21,06,40,13.80
2016,04,21,06,41,13.80
2016,04,21,06,42,13.80
2016,04,21,06,43,13.80
2016,04,21,06,44,13.80
2016,04,21,06,45,13.80
2016,04,21,06,46,13.80
2016,04,21,06,47,13.80
2016,04,21,06,48,13.80
2016,04,21,06,49,13.80
2016,04,21,06,50,13.80
2016,04,21,06,51,13.80
2016,04,21,06,52,13.80
2016,04,21,06,53,13.80
2016,04,21,06,54,13.80
2016,04,21,06,55,13.80
2016,04,21,06,56,13.80
2016,04,21,06,57,13.80
2016,04,21,06,58,13.80
2016,04,21,06,59,13.80
2016,04,21,07,00,13.80
2016,04,21,07,01,13.80
2016,04,21,07,02,13.80
2016,04,21,07,03,13.80
2016,04,21,07,04,13.80
2016,04,21,07,05,13.80
2016,04,21,07,06,13.80
2016,04,21,07,07,13.80
2016,04,21,07,08,13.80
2016,04,21,07,09,13.80
2016,04,21,07,10,13.80
2016,04,21,07,11,13.70
2016,04,21,07,12,13.70
2016,04,21,07,13,13.70
2016,04,21,07,14,13.60
2016,04,21,07,15,13.60
2016,04,21,07,16,13.60
2016,04,21,07,17,13.60
2016,04,21,07,18,13.60
2016,04,21,07,19,13.50
2016,04,21,07,20,13.50
2016,04,21,07,21,13.40
2016,04,21,07,22,13.40
2016,04,21,07,23,13.40
2016,04,21,07,24,13.30
2016,04,21,07,25,13.30
2016,04,21,07,26,13.30
2016,04,21,07,27,13.30
2016,04,21,07,28,13.30
2016,04,21,07,29,13.30
2016,04,21,07,30,13.30
2016,04,21,07,31,13.30
2016,04,21,07,32,13.30
2016,04,21,07,33,13.30
2016,04,21,07,34,13.30
2016,04,21,07,35,13.30
2016,04,21,07,36,13.30
2016,04,21,07,37,13.30
2016,04,21,07,38,13.30
2016,04,21,07,39,13.30
2016,04,21,07,40,13.40
2016,04,21,07,41,13.40
2016,04,21,07,42,13.40
2016,04,21,07,43,13.40
2016,04,21,07,44,13.40
2016,04,21,07,45,13.40
2016,04,21,07,46,13.40
2016,04,21,07,47,13.40
2016,04,21,07,48,13.40
2016,04,21,07,49,13.40
2016,04,21,07,50,13.40
2016,04,21,07,51,13.50
2016,04,21,07,52,13.50
2016,04,21,07,53,13.50
2016,04,21,07,54,13.50
2016,04,21,07,55,13.50
2016,04,21,07,56,13.50
2016,04,21,07,57,13.50
2016,04,21,07,58,13.50
2016,04,21,07,59,13.60
2016,04,21,08,00,13.60
2016,04,21,08,01,13.70
2016,04,21,08,02,13.70
2016,04,21,08,03,13.70
2016,04,21,08,04,13.70
2016,04,21,08,05,13.70
2016,04,21,08,06,13.70
2016,04,21,08,07,13.70
2016,04,21,08,08,13.70
2016,04,21,08,09,13.70
2016,04,21,08,10,13.70
2016,04,21,08,11,13.70
2016,04,21,08,12,13.80
2016,04,21,08,13,13.80
2016,04,21,08,14,13.70
2016,04,21,08,15,13.70
2016,04,21,08,16,13.70
2016,04,21,08,17,13.70
2016,04,21,08,18,13.70
2016,04,21,08,19,13.70
2016,04,21,08,20,13.70
2016,04,21,08,21,13.70
2016,04,21,08,22,13.70
2016,04,21,08,23,13.70
2016,04,21,08,24,13.60
2016,04,21,08,25,13.60
2016,04,21,08,26,13.60
2016,04,21,08,27,13.60
2016,04,21,08,28,13.60
2016,04,21,08,29,13.60
2016,04,21,08,30,13.60
2016,04,21,08,31,13.70
2016,04,21,08,32,13.70
2016,04,21,08,33,13.70
2016,04,21,08,34,13.70
2016,04,21,08,35,13.70
2016,04,21,08,36,13.70
2016,04,21,08,37,13.70
2016,04,21,08,38,13.70
2016,04,21,08,39,13.70
2016,04,21,08,40,13.80
2016,04,21,08,41,13.70
2016,04,21,08,42,13.80
2016,04,21,08,43,13.80
2016,04,21,08,44,13.80
2016,04,21,08,45,13.80
2016,04,21,08,46,13.80
2016,04,21,08,47,13.80
2016,04,21,08,48,13.80
2016,04,21,08,49,13.90
2016,04,21,08,50,13.90
2016,04,21,08,51,13.90
2016,04,21,08,52,13.90
2016,04,21,08,53,14.00
2016,04,21,08,54,14.00
2016,04,21,08,55,14.00
2016,04,21,08,56,14.10
2016,04,21,08,57,14.10
2016,04,21,08,58,14.10
2016,04,21,08,59,14.20
2016,04,21,09,00,14.20
2016,04,21,09,01,14.20
2016,04,21,09,02,14.20
2016,04,21,09,03,14.30
2016,04,21,09,04,14.30
2016,04,21,09,05,14.30
2016,04,21,09,06,14.40
2016,04,21,09,07,14.40
2016,04,21,09,08,14.40
2016,04,21,09,09,14.40
2016,04,21,09,10,14.40
2016,04,21,09,11,14.40
2016,04,21,09,12,14.50
2016,04,21,09,13,14.50
2016,04,21,09,14,14.50
2016,04,21,09,15,14.50
2016,04,21,09,16,14.60
2016,04,21,09,17,14.60
2016,04,21,09,18,14.60
2016,04,21,09,19,14.60
2016,04,21,09,20,14.60
2016,04,21,09,21,14.60
2016,04,21,09,22,14.60
2016,04,21,09,23,14.60
2016,04,21,09,24,14.60
